Regional Weather Roundup
Issued by NWS

Home | Current Version | Previous Version | Text Only | Print | Product List | Glossary On
Versions: 1 2 3 4 5 6 7 8 9 10 11 12 13 14 15 16 17 18 19 20 21 22 23 24 25 26 27 28 29 30 31 32 33 34 35 36 37 38 39 40 41 42 43 44 45 46 47 48 49 50
000
ASUS43 KMKX 090821
RWRWI

WISCONSIN REGIONAL WEATHER ROUNDUP
NATIONAL WEATHER SERVICE MILWAUKEE/SULLIVAN WI
200 AM CST TUE FEB 09 2016

NOTE: "FAIR" INDICATES FEW OR NO CLOUDS BELOW 12,000 FEET WITH NO
SIGNIFICANT WEATHER AND/OR OBSTRUCTIONS TO VISIBILITY.

WIZ001-002-006>008-014>016-023>028-090900-
NORTHWEST WISCONSIN

CITY           SKY/WX    TMP DP  RH WIND       PRES   REMARKS
SUPERIOR ARPT  CLOUDY     6  -2  68 N10       30.02S WCI  -9
ASHLAND        CLOUDY    10   6  84 NW9       29.92S WCI  -3
HAYWARD        CLOUDY     6  -1  73 VRB6      29.91S WCI  -4
SIREN          PTCLDY     6  -1  73 N9        29.98S WCI  -8
CUMBERLAND     CLEAR      5  -2  72 NW14G23   29.92S WCI -12
RICE LAKE      FLURRIES   6  -1  73 NW10      29.95S WCI  -9
CHETEK         CLOUDY     6   0  75 MISG      29.93R
LADYSMITH      CLOUDY     7   2  80 NW14      29.88S HAZE    WCI  -9
EAU CLAIRE     CLOUDY     8  -2  63 NW16G22   29.92S WCI -10
MENOMONIE      PTCLDY     8   0  67 NW13G20   29.95S WCI  -7
NEW RICHMOND   CLOUDY     8   1  70 N17       29.97S WCI -10
OSCEOLA        FLURRIES   9   2  73 NW14G21   30.01S WCI  -7
$$

WIZ003>005-009-010-017-018-090900-
NORTH CENTRAL WISCONSIN

CITY           SKY/WX    TMP DP  RH WIND       PRES   REMARKS
MANITOWISH WTR LGT SNOW  10   6  83 N10       29.76R WCI  -3
ARBOR VITAE    LGT SNOW  13   8  79 N16G23    29.74S WCI  -3
WOODRUFF       LGT SNOW  13   8  79 N16G23    29.74S WCI  -3
RHINELANDER    CLOUDY     7   3  84 NW5       29.73S WCI  -2
EAGLE RIVER    LGT SNOW  10   4  76 N8        29.72S WCI  -2
LAND O LAKES   LGT SNOW  11   7  83 N13G20    29.73S WCI  -4
PHILLIPS       LGT SNOW   7   3  83 NW12      29.79S WCI  -8
TOMAHAWK       LGT SNOW   7   3  83 NW7       29.77S WCI  -4
MEDFORD        LGT SNOW   7   2  82 NW12      29.79R WCI  -9
MERRILL        PTCLDY     8   3  78 NW9       29.78S WCI  -5
$$

WIZ029-030-035-036-043>047-090900-
CENTRAL WISCONSIN

CITY           SKY/WX    TMP DP  RH WIND       PRES   REMARKS
WAUSAU         FLURRIES  10   3  73 NW9       29.76S WCI  -3
MOSINEE        LGT SNOW   9   5  85 NW10G17   29.79S WCI  -6
MARSHFIELD     PTCLDY     7   0  73 NW17      29.79S WCI -12
STEVENS POINT  LGT SNOW   9   3  78 NW8       29.79S WCI  -4
WAUPACA        MOCLDY    15   8  72 NW10G17   29.79R WCI   2
WAUTOMA        FLURRIES  12   5  73 NW12G20   29.80S WCI  -2
WISC RAPIDS    CLEAR      9   1  70 NW9       29.83R WCI  -4
CAMP DOUGLAS   CLOUDY     9   7  92 NW12      29.84S WCI  -6
$$

WIZ011>013-019>022-031-037>040-048>050-090900-
NORTHEAST WISCONSIN

CITY           SKY/WX    TMP DP  RH WIND       PRES   REMARKS
ANTIGO         FLURRIES   8   4  85 NW10      29.72S WCI  -7
SHAWANO        FLURRIES  17  10  76 NW5       29.78R WCI  10
OCONTO         CLOUDY    17   7  67 N10G17    29.76R WCI   4
STURGEON BAY   CLOUDY    16   7  67 NW14      29.75R WCI   1
GREEN BAY      LGT SNOW  16  11  80 NW12      29.76R WCI   3
MANITOWOC      CLOUDY    17  12  80 NW15      29.74S WCI   2
APPLETON       PTCLDY    14   9  79 W13       29.74R WCI   0
CLINTONVILLE   FLURRIES  14   9  79 NW9       29.77R WCI   2
OSHKOSH        CLOUDY    15   9  76 NW12      29.76R WCI   2
$$

WIZ032>034-041-042-053>061-090900-
SOUTHWEST WISCONSIN

CITY           SKY/WX    TMP DP  RH WIND       PRES   REMARKS
LA CROSSE      CLOUDY    11   1  64 N18G28    29.92R WCI  -7
SPARTA         FLURRIES  10   5  79 NW10G16   29.89S WCI  -4
VIROQUA        CLOUDY    10   4  77 N14       29.84R WCI  -6
BOSCOBEL       PTCLDY    13   4  67 N12       29.89R WCI  -1
PRAIRIE DU CHI CLOUDY    14   4  65 NW12      29.90R WCI   0
PLATTEVILLE    CLEAR     14   9  83 NW14      29.82R WCI  -1
$$

WIZ056-057-062-063-064-067-068-090900-
SOUTH CENTRAL WISCONSIN

CITY           SKY/WX    TMP DP  RH WIND       PRES   REMARKS
REEDSBURG      PTCLDY    11   5  77 NW12G17   29.82S WCI  -4
BARABOO/DELLS  CLOUDY    11   5  76 NW9G22    29.81R WCI  -2
LONE ROCK      CLOUDY    13   5  70 NW13G21   29.85R WCI  -2
MINERAL POINT  FLURRIES  14  10  85 NW13G20   29.80S WCI   0
MADISON        LGT SNOW  14   8  77 NW8G20    29.79R WCI   3
MIDDLETON      CLOUDY    15  10  80 NW13      29.80S WCI   2
WATERTOWN      FLURRIES  15  13  91 NW12G18   29.76R WCI   2
MONROE         FLURRIES  14  10  85 NW10G18   29.77S WCI   1
JANESVILLE     LGT SNOW  19  12  73 N12       29.77R WCI   7
$$

WIZ051-052-058>065-066-070>072-090900-
SOUTHEAST WISCONSIN

CITY           SKY/WX    TMP DP  RH WIND       PRES   REMARKS
MILWAUKEE      LGT SNOW  19  14  81 NW10      29.72S WCI   7
WAUKESHA       FLURRIES  14  12  92 NW14      29.74R WCI  -1
MILWAUKEE/TIMM FLURRIES  19  12  73 NW13      29.74R WCI   7
RACINE         FLURRIES  19  12  74 NW10G20   29.73S WCI   7
BURLINGTON     FLURRIES  15  10  82 NW13G20   29.74S WCI   1
KENOSHA        LGT SNOW  18  13  80 NW14      29.72S WCI   4
FOND DU LAC    FLURRIES  16  11  80 NW13      29.76R WCI   2
SHEBOYGAN      FLURRIES  18  11  74 NW13      29.73R WCI   5
WEST BEND      FLURRIES  18  12  79 NW15      29.73R WCI   3
JUNEAU         FLURRIES  14  10  85 NW10      29.76S WCI   1
$$

LSZ147-162-090900-
LAKE SUPERIOR

STATION/POSITION TIME  TEMP    WIND        PRES    WAVE
                       AIR SEA DIR/SP/G            HT/PER
                 (UTC) (F)     (DEG/KT/KT) (MB)    (FT/S)
DEVILS ISLAND    0800   12     340/ 24/ 31 1015.0R
PORT WING        0700   12     340/ 19/ 24 1014.9S
SAXON HARBOR     0700   16                 1011.9
$$

LMZ867-665-643>646-090900-
LAKE MICHIGAN

STATION/POSITION TIME  TEMP    WIND        PRES    WAVE
                       AIR SEA DIR/SP/G            HT/PER
                 (UTC) (F)     (DEG/KT/KT) (MB)    (FT/S)
CHAMBERS ISLAND  0700   16     310/ 16/ 21 1007.1F
NORTHPORT PIER   0805   17     320/ 21     1006.4R
ALGOMA LAKESHORE 0711          320/  8/ 11   N/A
KEWAUNEE LAKESHO 0800   16     330/  6/ 11 1006.4R
SHEBOYGAN LAKESH 0800   19     330/ 14/ 16 1008.0R
PORT WASHINGTON  0740   20     310/  5/  8 1007.8F
MILWAUKEE LAKESH 0810   19     310/ 11/ 13   N/A
KENOSHA   LAKESH 0800   19     310/ 16/ 20 1006.4S
$$

TC  - TEMPERATURE IN CELSIUS
VSB - VISIBILITY IN STATUTE MILES
WCI - WIND CHILL INDEX
HX  - HEAT INDEX




USA.gov is the U.S. government's official web portal to all federal, state and local government web resources and services.